Location: Bou Ouachlou
(32.7770°N, 5.6009°W)
Time: 10:50:06
(UTC+00:00)

SWARM A - Pass Details

Date: 07 June 2020
Orbit: 431 x 434 km, 87.4° (Epoch: 07 July)

Event Time Altitude Azimuth Distance (km) Brightness Sun altitude
Rises 04:12:52 0° 355° (N) 2,410 8.5 -11.7°
Reaches altitude 10° 04:14:55 10° 352° (N) 1,537 7.4 -11.3°
Maximum altitude 04:18:12 63° 272° (W) 486 4.2 -10.8°
Drops below altitude 10° 04:21:28 10° 190° (S) 1,524 6.6 -10.2°
Enters shadow 04:22:07 - 189° (S) 1,792 6.9 -10.1°
